Location: Bacea
(45.9500°N, 22.6667°E)
Time: 07:23:27
(UTC+00:00)

Cosmos 1300 - Pass Details

Date: 05 June 2022
Orbit: 506 x 508 km, 82.5° (Epoch: 06 July)

Event Time Altitude Azimuth Distance (km) Brightness Sun altitude
Rises 21:43:25 0° 355° (N) 2,623 7.8 -20.7°
Reaches altitude 10° 21:45:36 10° 0° (N) 1,732 6.5 -20.8°
Maximum altitude 21:49:19 53° 78° (ENE) 628 3.0 -20.9°
Enters shadow 21:49:37 51° 98° (E) 641 2.9 -20.9°
